User: anonymous   Login
Location: Santa Barbara
(34.4500°N, 119.7700°W)
Time: 04:07:17
(UTC-07:00)
Language:

Cosmos 1892 Rocket - Orbit

View from above orbital plane
View from above orbital plane
View from above satellite
View from above satellite

Ground track
Ground track

The orbit data is extracted from the following two-line orbital elements,

1 18422U 87088B   18145.18108705  .00000053  00000-0  35213-5 0  9994
2 18422  82.5133 216.4041 0020460  36.6078  19.8064 14.82970532652508
Epoch (UTC): 25 May 2018 04:20:45
Eccentricity: 0.0020460
inclination: 82.5133°
perigee height: 605 km
apogee height: 634 km
right ascension of ascending node: 216.4041°
argument of perigee: 36.6078°
revolutions per day: 14.82970532
mean anomaly at epoch: 19.8064°
orbit number at epoch: 65250

The dashed part of the orbit path shows where the satellite is in the earth's shadow,  

DLR